• Em Portugal
  • Lista de países
  • Para 7 dias
  • Temperatura da água
  • Mapas de satélite
  • Mapa do tempo
  • Widgets de tempo
  • user-avatar
    Iniciar Sessão

    Previsão horária em Gintro

    Hoje, 17 Outubro, Quarta-feira

    Tempo Temperatura Precipitação Vento Pressão Humidade
    00:00 +13°C° 0 mm 2 m/s 764 mmHg 62%
    01:00 +13°C° 0 mm 2 m/s 764 mmHg 62%
    02:00 +13°C° 0 mm 2 m/s 764 mmHg 62%
    03:00 +13°C° 0 mm 2 m/s 764 mmHg 62%
    04:00 +12°C° 0 mm 2 m/s 764 mmHg 62%
    05:00 +11°C° 0 mm 3 m/s 764 mmHg 63%
    06:00 +11°C° 0 mm 3 m/s 764 mmHg 63%
    07:00 +11°C° 0 mm 3 m/s 764 mmHg 63%
    08:00 +13°C° 0 mm 3 m/s 764 mmHg 58%
    09:00 +16°C° 0 mm 3 m/s 764 mmHg 54%
    10:00 +18°C° 0 mm 3 m/s 764 mmHg 49%
    11:00 +19°C° 0 mm 3 m/s 764 mmHg 46%
    12:00 +20°C° 0 mm 3 m/s 764 mmHg 44%
    13:00 +21°C° 0 mm 3 m/s 764 mmHg 41%
    14:00 +21°C° 0 mm 3 m/s 764 mmHg 44%
    15:00 +20°C° 0 mm 2 m/s 764 mmHg 47%
    16:00 +19°C° 0 mm 2 m/s 763 mmHg 50%
    17:00 +18°C° 0 mm 2 m/s 763 mmHg 51%
    18:00 +17°C° 0 mm 2 m/s 764 mmHg 53%
    19:00 +16°C° 0 mm 2 m/s 764 mmHg 55%
    20:00 +15°C° 0 mm 2 m/s 764 mmHg 56%
    21:00 +15°C° 0 mm 2 m/s 764 mmHg 56%
    22:00 +14°C° 0 mm 2 m/s 763 mmHg 56%
    23:00 +14°C° 0 mm 2 m/s 763 mmHg 57%

    Amanhã, 18 Outubro, Quinta-feira

    Tempo Temperatura Precipitação Vento Pressão Humidade
    00:00 +14°C° 0 mm 2 m/s 763 mmHg 58%
    01:00 +13°C° 0 mm 2 m/s 763 mmHg 58%
    02:00 +13°C° 0 mm 2 m/s 763 mmHg 59%
    03:00 +13°C° 0 mm 2 m/s 763 mmHg 61%
    04:00 +12°C° 0 mm 1 m/s 762 mmHg 62%
    05:00 +12°C° 0 mm 2 m/s 762 mmHg 62%
    06:00 +12°C° 0 mm 2 m/s 762 mmHg 62%
    07:00 +13°C° 0 mm 2 m/s 762 mmHg 63%
    08:00 +14°C° 0 mm 1 m/s 762 mmHg 58%
    09:00 +16°C° 0 mm 1 m/s 762 mmHg 54%
    10:00 +18°C° 0 mm 1 m/s 762 mmHg 49%
    11:00 +19°C° 0 mm 1 m/s 762 mmHg 47%
    12:00 +20°C° 0 mm 1 m/s 762 mmHg 45%
    13:00 +21°C° 0 mm 1 m/s 762 mmHg 44%
    14:00 +20°C° 0 mm 1 m/s 761 mmHg 48%
    15:00 +20°C° 0 mm 1 m/s 761 mmHg 52%
    16:00 +19°C° 0 mm 1 m/s 761 mmHg 56%
    17:00 +17°C° 0 mm 2 m/s 761 mmHg 59%
    18:00 +16°C° 0 mm 2 m/s 762 mmHg 63%
    19:00 +15°C° 0 mm 2 m/s 762 mmHg 66%
    20:00 +15°C° 0 mm 2 m/s 762 mmHg 71%
    21:00 +14°C° 0 mm 2 m/s 762 mmHg 76%
    22:00 +14°C° 0 mm 2 m/s 763 mmHg 81%
    23:00 +13°C° 0 mm 2 m/s 763 mmHg 85%

    Depois de amanhã, 19 Outubro, Sexta-feira

    Tempo Temperatura Precipitação Vento Pressão Humidade
    00:00 +13°C° 0 mm 2 m/s 763 mmHg 89%
    01:00 +12°C° 0 mm 3 m/s 763 mmHg 92%
    02:00 +12°C° 0 mm 3 m/s 763 mmHg 92%
    03:00 +12°C° 0 mm 3 m/s 763 mmHg 92%
    04:00 +12°C° 0 mm 3 m/s 764 mmHg 92%
    05:00 +12°C° 0 mm 3 m/s 764 mmHg 89%
    06:00 +11°C° 0 mm 3 m/s 764 mmHg 87%
    07:00 +11°C° 0 mm 3 m/s 765 mmHg 84%
    08:00 +12°C° 0 mm 3 m/s 765 mmHg 76%
    09:00 +13°C° 0 mm 3 m/s 765 mmHg 68%
    10:00 +14°C° 0 mm 4 m/s 766 mmHg 60%
    11:00 +14°C° 0 mm 4 m/s 766 mmHg 58%
    12:00 +14°C° 0 mm 4 m/s 766 mmHg 56%
    13:00 +16°C° 0 mm 3 m/s 766 mmHg 53%
    14:00 +14°C° 0 mm 3 m/s 766 mmHg 57%
    15:00 +13°C° 0 mm 3 m/s 766 mmHg 61%
    16:00 +13°C° 0 mm 3 m/s 766 mmHg 65%
    17:00 +12°C° 0 mm 2 m/s 766 mmHg 70%
    18:00 +10°C° 0 mm 2 m/s 767 mmHg 76%
    19:00 +9°C° 0 mm 2 m/s 767 mmHg 82%
    20:00 +8°C° 0 mm 2 m/s 767 mmHg 83%
    21:00 +9°C° 0 mm 1 m/s 767 mmHg 84%
    22:00 +9°C° 0 mm 1 m/s 768 mmHg 85%
    23:00 +8°C° 0 mm 1 m/s 768 mmHg 86%

    20 Outubro, Sábado

    Tempo Temperatura Precipitação Vento Pressão Humidade
    00:00 +8°C° 0 mm 1 m/s 768 mmHg 87%
    01:00 +8°C° 0 mm 1 m/s 768 mmHg 87%
    02:00 +7°C° 0 mm 1 m/s 768 mmHg 88%
    03:00 +7°C° 0 mm 1 m/s 768 mmHg 89%
    04:00 +7°C° 0 mm 1 m/s 768 mmHg 90%
    05:00 +7°C° 0 mm 1 m/s 768 mmHg 90%
    06:00 +6°C° 0 mm 2 m/s 769 mmHg 90%
    07:00 +6°C° 0 mm 2 m/s 769 mmHg 90%
    08:00 +8°C° 0 mm 2 m/s 769 mmHg 83%
    09:00 +9°C° 0 mm 2 m/s 769 mmHg 76%
    10:00 +12°C° 0 mm 2 m/s 769 mmHg 69%
    11:00 +11°C° 0 mm 3 m/s 770 mmHg 65%
    12:00 +12°C° 0 mm 3 m/s 770 mmHg 61%
    13:00 +13°C° 0 mm 4 m/s 770 mmHg 58%
    14:00 +12°C° 0 mm 3 m/s 769 mmHg 61%
    15:00 +12°C° 0 mm 3 m/s 769 mmHg 64%
    16:00 +11°C° 0 mm 3 m/s 769 mmHg 67%
    17:00 +10°C° 0 mm 3 m/s 770 mmHg 71%
    18:00 +10°C° 0 mm 3 m/s 770 mmHg 74%
    19:00 +9°C° 0 mm 3 m/s 770 mmHg 78%
    20:00 +9°C° 0 mm 3 m/s 770 mmHg 80%
    21:00 +8°C° 0 mm 3 m/s 770 mmHg 82%
    22:00 +8°C° 0 mm 3 m/s 770 mmHg 85%
    23:00 +8°C° 0 mm 3 m/s 770 mmHg 86%

    21 Outubro, Domingo

    Tempo Temperatura Precipitação Vento Pressão Humidade
    00:00 +8°C° 0 mm 3 m/s 770 mmHg 87%
    01:00 +7°C° 0 mm 4 m/s 770 mmHg 87%
    02:00 +7°C° 0 mm 4 m/s 770 mmHg 89%
    03:00 +7°C° 0 mm 4 m/s 770 mmHg 90%
    04:00 +7°C° 0 mm 4 m/s 770 mmHg 92%
    05:00 +7°C° 0 mm 4 m/s 770 mmHg 93%
    06:00 +7°C° 0 mm 4 m/s 770 mmHg 93%
    07:00 +7°C° 0 mm 4 m/s 770 mmHg 94%
    08:00 +8°C° 0 mm 4 m/s 769 mmHg 88%
    09:00 +11°C° 0 mm 4 m/s 769 mmHg 82%
    10:00 +12°C° 0 mm 4 m/s 769 mmHg 76%
    11:00 +12°C° 0 mm 4 m/s 769 mmHg 73%
    12:00 +13°C° 0 mm 4 m/s 769 mmHg 71%
    13:00 +13°C° 0 mm 4 m/s 769 mmHg 69%
    14:00 +13°C° 0 mm 4 m/s 769 mmHg 69%
    15:00 +13°C° 0 mm 3 m/s 768 mmHg 70%
    16:00 +12°C° 0 mm 3 m/s 768 mmHg 71%
    17:00 +11°C° 0 mm 3 m/s 768 mmHg 74%
    18:00 +10°C° 0 mm 3 m/s 768 mmHg 76%
    19:00 +9°C° 0 mm 3 m/s 767 mmHg 79%
    20:00 +8°C° 0 mm 4 m/s 767 mmHg 78%
    21:00 +8°C° 0 mm 4 m/s 767 mmHg 78%
    22:00 +8°C° 0 mm 4 m/s 766 mmHg 77%
    23:00 +7°C° 0 mm 4 m/s 766 mmHg 77%

    22 Outubro, Segunda-feira

    Tempo Temperatura Precipitação Vento Pressão Humidade
    00:00 +7°C° 0 mm 5 m/s 766 mmHg 76%
    01:00 +7°C° 0 mm 5 m/s 765 mmHg 75%
    02:00 +7°C° 0 mm 5 m/s 765 mmHg 75%
    03:00 +7°C° 0 mm 5 m/s 765 mmHg 75%
    04:00 +6°C° 0 mm 5 m/s 764 mmHg 75%
    05:00 +6°C° 0 mm 5 m/s 764 mmHg 75%
    06:00 +6°C° 0 mm 5 m/s 764 mmHg 75%
    07:00 +6°C° 0 mm 4 m/s 764 mmHg 76%
    08:00 +7°C° 0 mm 4 m/s 764 mmHg 74%
    09:00 +10°C° 0 mm 4 m/s 764 mmHg 73%
    10:00 +11°C° 0 mm 4 m/s 765 mmHg 71%
    11:00 +12°C° 0 mm 5 m/s 764 mmHg 66%
    12:00 +13°C° 0 mm 5 m/s 764 mmHg 60%
    13:00 +13°C° 0 mm 5 m/s 764 mmHg 55%
    14:00 +12°C° 0 mm 5 m/s 764 mmHg 56%
    15:00 +12°C° 0 mm 4 m/s 764 mmHg 58%
    16:00 +11°C° 0 mm 4 m/s 764 mmHg 59%
    17:00 +8°C° 0 mm 4 m/s 764 mmHg 63%
    18:00 +7°C° 0 mm 4 m/s 764 mmHg 67%
    19:00 +7°C° 0 mm 3 m/s 764 mmHg 72%
    20:00 +6°C° 0 mm 4 m/s 764 mmHg 73%
    21:00 +6°C° 0 mm 4 m/s 764 mmHg 75%
    22:00 +5°C° 0 mm 4 m/s 764 mmHg 76%
    23:00 +5°C° 0 mm 4 m/s 763 mmHg 77%
    Mostrar mais